"Pseudo-MPEC" for P20OVuV

Created 2019 Jun 15 19:09:47 UT using Find_Orb

Click here for an explanation of pseudo-MPECs

 
 Astrometry: 
     P20OVuV  C2019 06 10U?fNQ?m+`mA-C#9g.hase(Dj(uPT*It3m_.MZ;K]T8`rN$k9`i]iF52
     P20OVuV  C2019 06 10k2sy=vM*wAd6OkqjTyU:;Mhss\Zb?#.,v-#L[-#q:+b1u%eN4D;HF52
     P20OVuV  C2019 06 10=h^QQXT9d*FgW[tZ7EAstrometrytBa+rfKT+Dp-b8l9iJn\4R]UF52
     P20OVuV KC2019 06 10/)j0N,5$XVOY0Z#Zg?s33]'yKY6C./37Q%'U]7^p!rt\:m/M%1aXK88
     P20OVuV KC2019 06 11\un=#+ur\yl8j*.k#\'=P6j0UrNlmC/15uaRP`xhP]Pv`g#Wq:!'K88
     P20OVuV KC2019 06 110Wy^Il[2W[!MWcZa#2O.oY*/F-f=!hy1yxJE+4gi*x,_0PhF!/cvK88
     P20OVuV KC2019 06 12serP=q?`-r'PVY]tmK`eKaAZ=*07IN/EZTv:%IuV%T9L`%2%PNFd691
     P20OVuV KC2019 06 12EPu\#lTI.gW#mxI_-_YdF'nNMYsW.V11?Z(N_+o?]r%jhd$j)JKQ691
     P20OVuV KC2019 06 12xR0qcr'u*]:dfB@%'5EeaJ/Oh3sK7D#5Pga:`B5j).FOK-JrZt(c691
     P20OVuV  C2019 06 12.43644 20 47 30.42 -01 59 35.1    ~6CAq 19.1 GVNEOCPI52
     P20OVuV  C2019 06 12.43900 20 47 30.54 -01 59 36.7    ~6CAq 19.4 GVNEOCPI52
     P20OVuV  C2019 06 12.44157 20 47 30.68 -01 59 38.1    ~6CAq 19.0 GVNEOCPI52
     P20OVuV  C2019 06 12.44509 20 47 30.90 -01 59 40.5    ~6CAq 18.9 GVNEOCPI52
     P20OVuV  C2019 06 13.41414 20 48 31.13 -02 09 34.4    ~6DAq 19.9 GVNEOCPI52
     P20OVuV  C2019 06 13.41771 20 48 31.27 -02 09 35.6    ~6DAq 20.6 GVNEOCPI52
     P20OVuV  C2019 06 13.43204 20 48 32.17 -02 09 44.7    ~6DAq 20.0 GVNEOCPI52
     P20OVuV  C2019 06 13.43577 20 48 32.34 -02 09 48.5    ~6DAq       VNEOCPI52
     P20OVuV  C2019 06 13=o]h-[kv237LsZ;=:DK`$T12M\redacted;^-0@pM6-pwi;M!NeMF52
     P20OVuV  C2019 06 13!yh9fDSkxdW%;fe6]lLjb#YXP4,oabn)apJ:;#Yr\YgIx#,k)P-,F52
     P20OVuV  C2019 06 13declick]xLR:4!C:b9?#.v\Xon[HqA9!ra6fxh8+(,tHs9K(iab1F52
     P20OVuV  C2019 06 13V]3(%]QxAFw/8(lhr96E,bMP#6RhFi!(H[?ybt.;*!wP?e2!G?=OF52
     P20OVuV KC2019 06 14Iu?UceD?HGgF_A%T%QUEW2rX+5-TdL/(l-G:T![UrAPwuU#MdCu4691
     P20OVuV KC2019 06 14oSs+aMIg6QYDxMRT/-L*]#%l,0\*+Ky_D^rhere.Ab_!,8(9F7FLH21
     P20OVuV KC2019 06 14u^O!*Ufora;kEFE_a]93k[u+6\wuC0Ao_YD`dS%DG%;Fe*X5Om0ZH21
     P20OVuV KC2019 06 14)FWATf=IKvGf:Th?yiy:6dp@v_ojI*sp;O7poTsA+AaEu)eNrBb(691
     P20OVuV KC2019 06 148(XQRH!6vqQK.GA=AHWexplanationm7`2@XPbu2U#k,/m-EiXw;691
     P20OVuV  C2019 06 15.33228 20 50 27.38 -02 30 37.8    ~6F9b       VNEOCPI52
     P20OVuV  C2019 06 15.34184 20 50 27.80 -02 30 44.6    ~6F9b 20.3 GVNEOCPI52
     P20OVuV  C2019 06 15.34962 20 50 28.15 -02 30 50.5    ~6F9b       VNEOCPI52
     P20OVuV  C2019 06 15.35784 20 50 28.71 -02 30 54.6    ~6F9b 20.7 GVNEOCPI52

Station data:
(691) Steward Observatory, Kitt Peak - Spacewatch  (N31.962174 W111.600327)
   US/Arizona.  Observer J. V. Scotti. 0.9-m f/3 reflector + CCD.
(F52) Pan-STARRS 2, Haleakala  (N20.707384 W156.255910)  US/Hawaii. 1.8-m
   Ritchey-Chrétien + CCD.
(H21) Astronomical Research Observatory, Westfield  (N39.483057 W87.968270)
   US/Illinois. 0.76-m f/3.0 astrograph + CCD.
(I52) Steward Observatory, Mt. Lemmon Station  (N32.442547 W110.788920)
   US/Arizona.  Observers T. A. Pruyne, B. M. Africano, E. J. Christensen, G.
   A. Farneth, D. C. Fuls, A. R. Gibbs, A. D. Grauer, H. Groeller, J. A.
   Johnson, R. A. Kowalski, S. M. Larson, G. J. Leonard, R. L. Seaman, F. C.
   Shelly. 1.0-m reflector + CCD.
(K88) GINOP-KHK, Piszkéstető  (N47.917622 E19.893600)  Hungary.  Observer K.
   Sárneczky. 0.60-m Schmidt + CCD.

Orbital elements:  P20OVuV
   Perihelion 2019 Aug 6.797172 +/- 0.836 TT = 19:07:55 (JD 2458702.297172)
Epoch 2019 Jun 15.0 TT = JDT 2458649.5   Earth MOID: 0.6498   Ju: 0.6035
M 350.85674128 +/- 0.27             (J2000 ecliptic)          AutoNEOCP
n   0.17317705 +/- 0.0033           Peri.  189.30559 +/- 0.52
a   3.18768808 +/- 0.0404           Node   124.83202 +/- 0.06
e   0.4787556 +/- 0.00539           Incl.   23.70229 +/- 0.07
P   5.69                   H 17.8   G  0.15   U  8.9  
q 1.66156430 +/- 0.0041    Q 4.71381186 +/- 0.0758
From 30 observations 2019 June 10-15; mean residual 0".44
Residuals in arcseconds: 
190610 F52  .02-  .11-    190612 I52  .14+  .19-    190613 F52  .05+  .07-    
190610 F52  .02-  .14-    190612 I52  .04-  .06-    190614 691  .13-  .58+    
190610 F52  .01-  .10-    190612 I52  .13+  .35-    190614 H21  .13+  .07-    
190610 K88  .42+  .22+    190613 I52  .14+  .46-    190614 H21  .47+  .36-    
190611 K88  .05-  .01+    190613 I52  .87-  .58+    190614 691  .09-  .21+    
190611 K88  .22-  .31+    190613 I52  .12+  .49+    190614 691  .01+  .45+    
190612 691  .25-  .04+    190613 I52  .58-  .97-    190615 I52  1.6+  .07-    
190612 691  .30-  .18+    190613 F52  .06+  .08-    190615 I52  .20-  .26-    
190612 691  .10-  .03+    190613 F52  .18+  .07-    190615 I52  1.5-  .78-    
190612 I52  .62+  .12-    190613 F52  .17+  .02+    190615 I52  .11-  .81+    

Ephemerides (geocentric):
Date (UTC) HH   RA              Dec         delta   r     elong  mag " sig PA
---- -- -- --  -------------   -----------  ------ ------ -----  --- ---- ---
2019 06 15 19  20 50 54.053   -02 35 52.83  .90509 1.7286 128.2 20.0 .299  39
2019 06 15 20  20 50 56.502   -02 36 22.26  .90470 1.7285 128.2 20.0 .312  39
2019 06 15 21  20 50 58.949   -02 36 51.73  .90432 1.7284 128.3 20.0 .324  39
2019 06 15 22  20 51 01.394   -02 37 21.27  .90393 1.7283 128.3 20.0 .337  39
2019 06 15 23  20 51 03.837   -02 37 50.87  .90354 1.7282 128.3 20.0 .350  39
2019 06 16 00  20 51 06.278   -02 38 20.52  .90315 1.7281 128.4 20.0 .363  38
2019 06 16 01  20 51 08.717   -02 38 50.23  .90277 1.7280 128.4 20.0 .376  38
2019 06 16 02  20 51 11.154   -02 39 20.00  .90238 1.7279 128.4 20.0 .390  38
2019 06 16 03  20 51 13.589   -02 39 49.83  .90199 1.7278 128.5 20.0 .404  38
2019 06 16 04  20 51 16.022   -02 40 19.72  .90160 1.7277 128.5 20.0 .417  38
2019 06 16 05  20 51 18.453   -02 40 49.66  .90122 1.7276 128.5 20.0 .431  38
2019 06 16 06  20 51 20.882   -02 41 19.67  .90083 1.7275 128.6 20.0 .446  37
2019 06 16 07  20 51 23.309   -02 41 49.73  .90045 1.7274 128.6 20.0 .460  37
2019 06 16 08  20 51 25.734   -02 42 19.85  .90006 1.7273 128.6 20.0 .475  37
2019 06 16 09  20 51 28.157   -02 42 50.03  .89967 1.7272 128.7 20.0 .490  37
2019 06 16 10  20 51 30.577   -02 43 20.27  .89929 1.7271 128.7 20.0 .505  37
2019 06 16 11  20 51 32.996   -02 43 50.57  .89890 1.7270 128.7 20.0 .520  37
2019 06 16 12  20 51 35.413   -02 44 20.92  .89852 1.7269 128.8 19.9 .535  37
2019 06 16 13  20 51 37.827   -02 44 51.34  .89813 1.7268 128.8 19.9 .551  37
2019 06 16 14  20 51 40.240   -02 45 21.81  .89775 1.7267 128.8 19.9 .567  37
2019 06 16 15  20 51 42.650   -02 45 52.35  .89736 1.7266 128.9 19.9 .583  37
2019 06 16 16  20 51 45.059   -02 46 22.94  .89698 1.7265 128.9 19.9 .599  36
2019 06 16 17  20 51 47.465   -02 46 53.59  .89660 1.7264 128.9 19.9 .615  36
2019 06 16 18  20 51 49.870   -02 47 24.30  .89621 1.7263 129.0 19.9 .632  36
2019 06 16 19  20 51 52.272   -02 47 55.07  .89583 1.7262 129.0 19.9 .649  36
2019 06 16 20  20 51 54.672   -02 48 25.90  .89544 1.7261 129.0 19.9 .666  36
2019 06 16 21  20 51 57.071   -02 48 56.79  .89506 1.7260 129.1 19.9 .683  36
2019 06 16 22  20 51 59.467   -02 49 27.73  .89468 1.7259 129.1 19.9 .700  36
2019 06 16 23  20 52 01.861   -02 49 58.74  .89430 1.7258 129.1 19.9 .718  36
2019 06 17 00  20 52 04.253   -02 50 29.81  .89391 1.7257 129.2 19.9 .736  36
2019 06 17 01  20 52 06.643   -02 51 00.93  .89353 1.7256 129.2 19.9 .753  36
2019 06 17 02  20 52 09.031   -02 51 32.12  .89315 1.7254 129.2 19.9 .772  36
2019 06 17 03  20 52 11.417   -02 52 03.36  .89277 1.7253 129.3 19.9 .790  36
2019 06 17 04  20 52 13.801   -02 52 34.67  .89238 1.7252 129.3 19.9 .809  36
2019 06 17 05  20 52 16.183   -02 53 06.03  .89200 1.7251 129.3 19.9 .827  36
2019 06 17 06  20 52 18.562   -02 53 37.46  .89162 1.7250 129.4 19.9 .846  35
2019 06 17 07  20 52 20.940   -02 54 08.94  .89124 1.7249 129.4 19.9 .865  35
2019 06 17 08  20 52 23.316   -02 54 40.48  .89086 1.7248 129.4 19.9 .885  35
2019 06 17 09  20 52 25.689   -02 55 12.09  .89048 1.7247 129.5 19.9 .904  35
2019 06 17 10  20 52 28.060   -02 55 43.75  .89010 1.7246 129.5 19.9 .924  35
2019 06 17 11  20 52 30.430   -02 56 15.48  .88972 1.7245 129.5 19.9 .944  35
2019 06 17 12  20 52 32.797   -02 56 47.26  .88934 1.7244 129.6 19.9 .964  35
2019 06 17 13  20 52 35.162   -02 57 19.10  .88896 1.7243 129.6 19.9 .985  35
2019 06 17 14  20 52 37.525   -02 57 51.01  .88858 1.7242 129.6 19.9 1.01  35
2019 06 17 15  20 52 39.886   -02 58 22.97  .88820 1.7241 129.7 19.9 1.03  35
2019 06 17 16  20 52 42.245   -02 58 55.00  .88782 1.7240 129.7 19.9 1.05  35
2019 06 17 17  20 52 44.602   -02 59 27.08  .88744 1.7239 129.7 19.9 1.07  35
2019 06 17 18  20 52 46.957   -02 59 59.23  .88706 1.7238 129.8 19.9 1.09  35